Location: Marcé
(47.5801°N, 0.3280°W)
Time: 04:22:36
(UTC+01:00)

Explorer 11/Cluster Stage 4 - Pass Details

Date: 01 December 2021
Orbit: 467 x 1255 km, 28.8° (Epoch: 26 January)

Event Time Altitude Azimuth Distance (km) Brightness Sun altitude
Rises 08:30:09 0° 249° (WSW) 4,167 9.9 -0.6°
Reaches altitude 10° 08:35:17 10° 222° (SW) 3,224 9.6 0.1°
Maximum altitude 08:38:14 12° 201° (SSW) 3,031 9.8 0.5°
Drops below altitude 10° 08:41:10 10° 179° (S) 3,175 10.2 0.9°
Sets 08:46:09 0° 153° (SSE) 4,034 11.5 1.6°
